AMC-11

Last updated on Wed Nov 05 2025 00:02:45 GMT+0000 (Coordinated Universal Time)

1 28252U 04017A 25308.58518723 -.00000037 00000+0 00000+0 0 9997 2 28252 0.0572 71.5886 0003492 161.1171 270.9724 1.00269850 78621
UTC large
Height (km)
Speed (km/s)
/
Latitude / Longitude
Inclination (degrees)
Orbital Period (minutes)
Azimuth
Elevation
Range (km)
Doppler Factor

Next 0 passes for location: London (51.5072 / 0.1276)

Sorry there are no passes over London.